Location: Casa Rossa
(45.2389°N, 12.2056°E)
Time: 03:34:15
(UTC+00:00)

Cosmos 1515 - Pass Details

Date: 14 July 2020
Orbit: 507 x 515 km, 82.5° (Epoch: 11 August)

Event Time Altitude Azimuth Distance (km) Brightness Sun altitude
Rises 01:09:37 0° 342° (NNW) 2,640 8.0 -18.4°
Reaches altitude 10° 01:11:52 10° 334° (NNW) 1,749 6.8 -18.2°
Maximum altitude 01:15:22 35° 268° (W) 855 4.5 -17.9°
Enters shadow 01:15:45 34° 254° (WSW) 870 4.4 -17.9°
